Other Surface Observations
Issued by NWS Charleston, SC

Home | Current Version | Previous Version | Text Only | Print | Product List | Glossary On
Versions: 1 2 3 4 5 6 7 8 9 10 11 12 13 14 15 16 17 18 19 20 21 22 23 24 25 26 27 28 29 30 31 32 33 34 35 36 37 38 39 40 41 42 43 44 45 46 47 48 49 50
936
SXUS52 KCHS 301427
OSOCHS

MARINE OBSERVATIONS
NATIONAL WEATHER SERVICE CHARLESTON SC
1000 AM EDT TUE MAY 30 2017

...DOWNTOWN CHARLESTON AND HARBOR...

CITY           SKY/WX    TMP DP  RH WIND       PRES   REMARKS
WATERFRONT PRK   N/A     83  70  64 VRB2      30.08R

...LAKE MOULTRIE...

CITY           SKY/WX    TMP DP  RH WIND       PRES   REMARKS
PINOPOLIS        N/A     79  72  78 W6        30.02R

...LAKE AND SUPPLEMENTAL COASTAL OBSERVATIONS...

STATION/POSITION TIME  TEMP    WIND        PRES    WAVE   SWELL
                       AIR SEA DIR/SP/G            HT/PER HT/PER/DIR
                 (UTC) (F)     (DEG/KT/KT) (MB)    (FT/S) (FT/S/D)
FORT PULASKI     1400   80     290/  4/  5 1019.7
SAPELO ISLAND    1400   85     350/  5     1020.0
WINYAH BAY       1345   81     170/  4     1018.0F
LAKE MURRAY      1420   73     280/  4/  6 1018.6
ACE BASIN NERRS  1330   82     290/  1     1019.0S


...C-MAN AND BUOY OBSERVATIONS...

STATION/POSITION TIME  TEMP    WIND        PRES    WAVE   SWELL
                       AIR SEA DIR/SP/G            HT/PER HT/PER/DIR
                 (UTC) (F)     (DEG/KT/KT) (MB)    (FT/S) (FT/S/D)
BUOY 41004       NOT AVBL
BUOY 41008       NOT AVBL
FOLLY BEACH CMAN 1400   83     300/  2/  4 1019.5S
CAPERS NS BUOY   1408   81 79  230/  2/  4 1018.7F
FRIPP NS BUOY    1408   80 79  270/  2/  4 1019.1F
5E ST. MARYS GA  1400      80                N/A     1/ 3


STATION/POSITION TIME  TEMP    WIND        PRES    WAVE   SWELL
                       AIR SEA DIR/SP/G            HT/PER HT/PER/DIR
                 (UTC) (F)     (DEG/KT/KT) (MB)    (FT/S) (FT/S/D)
FRYING PAN BUOY  NOT AVBL
BUOY 41025       NOT AVBL
CAPE LOOKOUT NC  1400   72     330/  3/  5 1018.9F
BUOY 41002       NOT AVBL
BUOY 41010       NOT AVBL
ST AUGUSTINE FL  1400   80 76  330/  8/ 10 1021.1R

$$




USA.gov is the U.S. government's official web portal to all federal, state and local government web resources and services.